KJ7AZ-3 Weather Reports


time (UTC)temp
F
wind
direction
speed
knots
gust
knots
rain 1hr
in
rain 24hr
in
rain mn
in
humidity
%
barometer
mb
20260509174657 81 15 2.6 4.3 0.00 0.00 0.00
20260509173157 79 315 0.9 5.2 0.00 0.00 0.00
20260509171658 79 325 0.9 2.6 0.00 0.00 0.00
20260509170158 79 273 3.5 4.3 0.00 0.00 0.00
20260509164659 79 42 1.7 0.0 0.00 0.00 0.00
20260509163200 77 276 3.5 4.3 0.00 0.00 0.00
20260509161702 75 240 0.0 0.0 0.00 0.00 0.00
20260509160202 76 304 4.3 4.3 0.00 0.00 0.00
20260509154702 74 259 1.7 2.6 0.00 0.00 0.00
20260509153203 73 287 2.6 1.7 0.00 0.00 0.00
20260509151706 73 262 1.7 4.3 0.00 0.00 0.00
20260509150205 71 295 2.6 3.5 0.00 0.00 0.00
20260509144706 70 290 0.0 0.0 0.00 0.00 0.00
20260509143208 68 228 0.0 0.0 0.00 0.00 0.00
20260509141710 66 228 0.0 0.0 0.00 0.00 0.00
20260509140210 66 166 0.0 0.0 0.00 0.00 0.00
20260509134711 67 166 0.0 0.0 0.00 0.00 0.00
20260509133213 63 340 0.0 0.0 0.00 0.00 0.00
20260509131714 64 340 0.0 0.0 0.00 0.00 0.00
20260509130215 62 340 0.0 0.0 0.00 0.00 0.00
20260509124717 58 340 0.0 0.0 0.00 0.00 0.00
20260509123218 52 340 0.0 0.0 0.00 0.00 0.00
20260509121719 48 340 0.0 0.0 0.00 0.00 0.00
20260509120220 48 340 0.0 0.0 0.00 0.00 0.00
20260509114722 49 340 0.0 0.0 0.00 0.00 0.00
20260509113225 49 340 0.0 0.0 0.00 0.00 0.00
20260509111724 47 340 0.0 0.0 0.00 0.00 0.00
20260509100231 52 340 0.0 0.0 0.00 0.00 0.00
20260509094733 53 340 0.0 0.0 0.00 0.00 0.00
20260509093234 52 340 0.0 0.0 0.00 0.00 0.00
20260509091735 51 340 0.0 0.0 0.00 0.00 0.00
20260509090237 48 340 0.0 0.0 0.00 0.00 0.00
20260509084738 49 340 0.0 0.0 0.00 0.00 0.00
20260509083239 49 340 0.0 0.0 0.00 0.00 0.00
20260509081740 46 340 0.0 0.0 0.00 0.00 0.00
20260509080241 48 340 0.0 0.0 0.00 0.00 0.00
20260509074742 49 340 0.0 0.0 0.00 0.00 0.00
20260509073243 49 340 0.0 0.0 0.00 0.00 0.00
20260509071745 49 340 0.0 0.0 0.00 0.00 0.00
20260509070246 51 340 0.0 0.0 0.00 0.00 0.00
20260509064747 54 340 0.0 0.0 0.00 0.00 0.00
20260509063248 54 340 0.0 0.0 0.00 0.00 0.00
20260509061750 51 340 0.0 0.0 0.00 0.00 0.00
20260509054751 52 340 0.0 0.0 0.00 0.00 0.00
20260509053251 54 103 0.0 0.0 0.00 0.00 0.00
20260509051752 59 103 0.0 0.0 0.00 0.00 0.00
20260509050253 58 103 0.0 0.0 0.00 0.00 0.00
20260509044754 58 103 0.0 0.0 0.00 0.00 0.00
20260509043255 56 103 0.0 0.0 0.00 0.00 0.00
20260509041755 53 103 0.0 0.0 0.00 0.00 0.00
20260509040256 54 103 0.0 0.0 0.00 0.00 0.00
20260509034757 57 103 0.0 0.0 0.00 0.00 0.00
20260509033257 62 103 0.0 0.0 0.00 0.00 0.00
20260509031757 63 103 0.0 0.0 0.00 0.00 0.00
20260509030258 63 187 0.0 0.0 0.00 0.00 0.00
20260509024758 63 187 0.0 0.0 0.00 0.00 0.00
20260509023258 63 187 0.0 0.0 0.00 0.00 0.00
20260509021758 64 187 0.0 0.0 0.00 0.00 0.00
20260509020258 67 187 0.0 0.0 0.00 0.00 0.00
20260509014758 69 136 0.0 0.0 0.00 0.00 0.00
20260509011758 73 149 1.7 0.9 0.00 0.00 0.00
20260509010258 80 165 1.7 4.3 0.00 0.00 0.00
20260509004758 81 193 0.0 0.0 0.00 0.00 0.00
20260509003257 82 184 1.7 1.7 0.00 0.00 0.00
20260509001757 81 153 1.7 0.0 0.00 0.00 0.00
20260508234756 85 194 2.6 6.1 0.00 0.00 0.00
20260508233256 84 248 2.6 4.3 0.00 0.00 0.00
20260508231756 87 100 0.0 0.0 0.00 0.00 0.00
20260508224755 86 139 0.9 5.2 0.00 0.00 0.00
20260508223254 85 113 0.9 1.7 0.00 0.00 0.00
20260508220254 82 257 0.9 3.5 0.00 0.00 0.00
20260508214754 84 173 7.0 4.3 0.00 0.00 0.00
20260508213253 84 207 2.6 5.2 0.00 0.00 0.00
20260508211753 84 108 1.7 0.0 0.00 0.00 0.00
20260508210253 84 193 0.0 0.0 0.00 0.00 0.00
20260508204753 82 228 1.7 1.7 0.00 0.00 0.00
20260508203253 83 94 0.0 2.6 0.00 0.00 0.00
20260508201753 83 198 0.0 1.7 0.00 0.00 0.00
20260508200252 82 224 4.3 6.1 0.00 0.00 0.00
20260508193253 81 285 4.3 3.5 0.00 0.00 0.00
20260508191753 80 210 2.6 7.0 0.00 0.00 0.00
20260508184754 79 212 7.0 8.7 0.00 0.00 0.00
20260508183254 78 183 3.5 3.5 0.00 0.00 0.00
20260508181754 78 114 5.2 2.6 0.00 0.00 0.00
20260508180254 77 195 5.2 6.1 0.00 0.00 0.00